Precipitable_Water
0.41 0.40 0.40 0.39 0.39 0.39 0.39 0.39 0.40 0.40 0.40 0.41 0.40 0.40 0.40 0.40 0.39 0.37 0.36 0.36 0.35 0.34 0.33 0.32 0.32 0.32 0.33 0.33 0.33 0.33 0.32 0.31 0.31 0.32 0.31 0.31 0.30 0.29 0.28 0.29 0.29 0.29
0.41 0.41 0.41 0.40 0.40 0.40 0.41 0.41 0.41 0.41 0.41 0.41 0.41 0.41 0.41 0.40 0.40 0.38 0.37 0.36 0.36 0.35 0.34 0.33 0.33 0.33 0.33 0.33 0.34 0.33 0.34 0.33 0.32 0.34 0.33 0.32 0.31 0.31 0.30 0.30 0.30 0.30
0.41 0.41 0.41 0.40 0.40 0.41 0.42 0.42 0.42 0.42 0.42 0.42 0.42 0.42 0.41 0.41 0.40 0.40 0.39 0.37 0.36 0.35 0.35 0.35 0.34 0.34 0.34 0.34 0.34 0.34 0.34 0.34 0.33 0.34 0.34 0.33 0.33 0.31 0.30 0.31 0.31 0.31
0.42 0.41 0.41 0.42 0.42 0.42 0.42 0.42 0.42 0.42 0.42 0.43 0.43 0.43 0.43 0.43 0.42 0.41 0.40 0.38 0.37 0.36 0.35 0.35 0.35 0.35 0.35 0.35 0.35 0.35 0.34 0.34 0.34 0.35 0.34 0.34 0.34 0.32 0.31 0.32 0.31 0.31
0.42 0.42 0.43 0.43 0.44 0.44 0.43 0.42 0.41 0.42 0.42 0.43 0.43 0.44 0.44 0.43 0.43 0.42 0.40 0.39 0.38 0.36 0.36 0.36 0.36 0.36 0.36 0.36 0.35 0.35 0.35 0.34 0.35 0.35 0.35 0.35 0.35 0.34 0.33 0.32 0.32 0.31
0.45 0.45 0.45 0.44 0.44 0.44 0.43 0.42 0.42 0.42 0.43 0.43 0.44 0.45 0.45 0.44 0.43 0.41 0.40 0.39 0.38 0.37 0.37 0.37 0.37 0.37 0.37 0.37 0.36 0.36 0.36 0.35 0.35 0.36 0.36 0.35 0.35 0.35 0.34 0.33 0.32 0.31
0.45 0.45 0.45 0.45 0.45 0.45 0.44 0.43 0.43 0.43 0.44 0.44 0.45 0.45 0.45 0.44 0.43 0.42 0.41 0.40 0.39 0.38 0.37 0.37 0.37 0.37 0.38 0.38 0.37 0.37 0.37 0.37 0.36 0.36 0.36 0.36 0.36 0.35 0.35 0.33 0.32 0.31
0.47 0.47 0.46 0.46 0.46 0.46 0.45 0.44 0.44 0.45 0.45 0.46 0.45 0.45 0.45 0.45 0.44 0.43 0.42 0.41 0.40 0.39 0.38 0.37 0.36 0.36 0.37 0.37 0.37 0.37 0.37 0.38 0.37 0.37 0.37 0.37 0.36 0.34 0.33 0.33 0.32 0.30
0.48 0.47 0.47 0.47 0.46 0.47 0.46 0.46 0.46 0.46 0.46 0.45 0.45 0.45 0.46 0.46 0.45 0.43 0.43 0.42 0.40 0.39 0.38 0.37 0.36 0.36 0.37 0.37 0.38 0.37 0.37 0.37 0.37 0.37 0.36 0.36 0.35 0.34 0.32 0.32 0.30 0.29
0.48 0.48 0.48 0.47 0.47 0.47 0.48 0.47 0.47 0.46 0.46 0.45 0.45 0.46 0.45 0.45 0.45 0.44 0.43 0.42 0.41 0.39 0.38 0.37 0.36 0.36 0.37 0.37 0.37 0.37 0.37 0.36 0.36 0.36 0.36 0.36 0.35 0.33 0.31 0.30 0.29 0.28
0.48 0.48 0.48 0.48 0.48 0.48 0.48 0.49 0.47 0.46 0.46 0.46 0.46 0.45 0.45 0.45 0.45 0.45 0.44 0.43 0.42 0.40 0.38 0.37 0.36 0.36 0.36 0.36 0.36 0.37 0.36 0.36 0.36 0.35 0.34 0.34 0.34 0.32 0.31 0.30 0.29 0.29
0.47 0.48 0.48 0.48 0.48 0.48 0.49 0.49 0.48 0.46 0.46 0.46 0.45 0.44 0.44 0.44 0.45 0.45 0.44 0.43 0.42 0.40 0.39 0.37 0.36 0.35 0.35 0.35 0.35 0.35 0.36 0.35 0.35 0.34 0.34 0.34 0.34 0.33 0.32 0.31 0.30 0.30
0.46 0.47 0.48 0.48 0.47 0.48 0.48 0.49 0.47 0.46 0.46 0.45 0.45 0.44 0.44 0.44 0.45 0.45 0.44 0.42 0.41 0.40 0.38 0.36 0.35 0.35 0.35 0.34 0.34 0.34 0.34 0.34 0.34 0.34 0.34 0.34 0.33 0.32 0.30 0.30 0.30 0.30
0.45 0.47 0.47 0.47 0.47 0.47 0.47 0.47 0.47 0.46 0.46 0.46 0.46 0.44 0.44 0.45 0.45 0.45 0.44 0.42 0.41 0.40 0.38 0.37 0.37 0.36 0.36 0.34 0.34 0.34 0.34 0.34 0.34 0.34 0.33 0.34 0.33 0.31 0.29 0.29 0.29 0.29
0.45 0.47 0.48 0.48 0.47 0.46 0.46 0.46 0.46 0.46 0.47 0.46 0.46 0.45 0.45 0.45 0.45 0.44 0.43 0.42 0.41 0.40 0.39 0.39 0.38 0.36 0.35 0.34 0.34 0.35 0.35 0.34 0.34 0.33 0.32 0.31 0.30 0.28 0.27 0.27 0.27 0.26
0.46 0.47 0.48 0.49 0.48 0.47 0.46 0.46 0.46 0.46 0.46 0.46 0.46 0.46 0.46 0.45 0.45 0.44 0.43 0.41 0.40 0.41 0.41 0.40 0.38 0.36 0.36 0.35 0.35 0.33 0.32 0.32 0.32 0.31 0.30 0.30 0.29 0.27 0.25 0.25 0.24 0.24
0.48 0.48 0.49 0.49 0.49 0.49 0.48 0.47 0.47 0.46 0.46 0.46 0.46 0.47 0.46 0.46 0.46 0.45 0.43 0.43 0.42 0.42 0.40 0.39 0.38 0.36 0.35 0.34 0.33 0.32 0.31 0.31 0.30 0.30 0.29 0.29 0.27 0.26 0.24 0.24 0.24 0.24
0.49 0.49 0.49 0.50 0.50 0.49 0.48 0.47 0.47 0.47 0.47 0.47 0.47 0.47 0.47 0.47 0.46 0.45 0.44 0.43 0.43 0.42 0.41 0.39 0.36 0.35 0.34 0.33 0.33 0.32 0.31 0.30 0.29 0.28 0.27 0.26 0.26 0.25 0.24 0.24 0.24 0.24
0.50 0.49 0.48 0.48 0.49 0.49 0.48 0.48 0.48 0.48 0.48 0.48 0.48 0.48 0.48 0.47 0.46 0.45 0.44 0.44 0.44 0.42 0.40 0.39 0.37 0.35 0.34 0.33 0.32 0.30 0.29 0.27 0.26 0.25 0.24 0.24 0.24 0.24 0.24 0.24 0.25 0.25
0.51 0.50 0.49 0.48 0.48 0.48 0.48 0.48 0.49 0.48 0.49 0.50 0.50 0.50 0.49 0.48 0.47 0.46 0.45 0.45 0.44 0.43 0.41 0.38 0.35 0.33 0.33 0.32 0.31 0.29 0.27 0.25 0.24 0.23 0.23 0.23 0.24 0.24 0.25 0.25 0.26 0.26
0.52 0.52 0.51 0.49 0.49 0.49 0.49 0.49 0.49 0.50 0.51 0.51 0.51 0.50 0.49 0.48 0.48 0.47 0.46 0.45 0.44 0.42 0.39 0.36 0.33 0.32 0.32 0.31 0.30 0.29 0.27 0.24 0.24 0.24 0.24 0.24 0.25 0.26 0.26 0.26 0.26 0.26
0.52 0.51 0.51 0.50 0.49 0.50 0.50 0.50 0.50 0.50 0.50 0.51 0.50 0.50 0.49 0.48 0.47 0.46 0.46 0.45 0.43 0.41 0.37 0.33 0.32 0.32 0.32 0.31 0.29 0.29 0.29 0.26 0.25 0.25 0.25 0.26 0.27 0.28 0.29 0.28 0.28 0.27
0.51 0.51 0.50 0.49 0.49 0.50 0.49 0.49 0.49 0.49 0.49 0.49 0.48 0.48 0.48 0.47 0.47 0.47 0.46 0.44 0.41 0.38 0.35 0.32 0.30 0.31 0.31 0.30 0.29 0.29 0.29 0.28 0.26 0.26 0.27 0.28 0.29 0.29 0.30 0.29 0.28 0.26
0.50 0.50 0.49 0.49 0.49 0.49 0.49 0.49 0.49 0.49 0.49 0.49 0.47 0.47 0.47 0.47 0.47 0.46 0.45 0.42 0.39 0.36 0.33 0.31 0.29 0.30 0.31 0.30 0.29 0.29 0.29 0.27 0.27 0.27 0.28 0.29 0.29 0.30 0.29 0.28 0.27 0.26
0.49 0.49 0.49 0.49 0.48 0.48 0.48 0.48 0.48 0.48 0.49 0.48 0.48 0.48 0.47 0.47 0.46 0.45 0.43 0.41 0.38 0.35 0.33 0.30 0.29 0.30 0.30 0.29 0.29 0.29 0.29 0.28 0.28 0.28 0.28 0.28 0.29 0.28 0.28 0.26 0.25 0.24
0.48 0.48 0.48 0.48 0.47 0.46 0.46 0.46 0.46 0.46 0.46 0.46 0.46 0.45 0.45 0.45 0.44 0.43 0.42 0.40 0.38 0.36 0.34 0.31 0.29 0.29 0.30 0.29 0.28 0.29 0.29 0.28 0.28 0.27 0.27 0.28 0.28 0.27 0.25 0.25 0.24 0.23
Wind_Speed
36 36 36 36 36 36 36 37 36 36 36 36 35 35 35 35 35 35 35 35 34 35 34 34 33 33 33 33 33 33 33 33 34 34 34 35 35 35 36 36 36 37
37 37 37 37 37 37 37 38 38 38 37 37 37 36 36 36 36 36 36 36 35 35 35 35 34 34 34 34 34 34 34 34 35 35 36 36 36 37 37 37 37 37
37 38 38 39 38 38 38 38 38 38 38 38 38 37 37 37 37 37 37 37 37 36 36 35 35 35 34 34 34 35 35 35 36 36 36 37 37 37 37 37 38 38
38 39 39 39 39 39 39 38 39 39 39 39 39 38 38 37 37 37 37 37 37 37 36 36 36 35 35 35 35 35 35 36 36 36 36 37 37 37 37 38 38 38
39 40 40 40 40 40 40 40 40 40 40 40 40 39 38 38 38 37 37 37 37 37 36 36 36 36 35 35 35 36 36 36 36 36 37 37 37 38 38 38 38 39
40 41 41 41 41 42 42 42 41 41 41 41 41 41 40 38 38 37 37 36 36 37 36 36 36 36 36 36 36 37 37 37 37 37 37 37 38 38 38 38 39 39
42 42 42 43 43 43 43 43 43 42 42 42 42 42 41 40 39 38 37 37 36 36 36 37 37 37 37 37 37 37 37 37 37 37 37 38 38 38 38 39 39 40
44 44 44 44 45 45 45 44 44 44 43 43 43 42 42 41 40 38 38 37 37 37 37 37 37 37 37 37 37 37 37 37 38 38 38 38 38 38 38 39 39 40
45 45 45 46 46 46 46 45 45 44 44 43 43 43 43 42 40 39 38 38 38 37 37 37 38 38 37 37 37 37 37 38 38 38 38 38 38 38 39 39 39 40
46 47 47 47 47 47 47 46 45 45 44 44 43 43 43 42 41 40 39 39 38 38 38 38 38 38 38 37 37 37 38 38 38 38 38 38 38 38 39 39 39 40
47 47 48 48 47 47 47 47 46 45 44 44 43 43 43 43 42 41 40 40 40 40 39 39 39 39 38 38 38 38 38 37 37 37 38 38 38 39 39 39 40 41
47 48 49 49 48 47 47 47 46 45 45 44 44 44 44 44 43 42 41 41 41 41 40 40 40 40 39 39 38 38 37 37 38 38 38 39 39 40 40 40 41 41
48 48 48 49 49 48 47 47 46 46 45 45 44 44 45 44 44 44 43 42 42 42 42 42 41 40 40 39 38 38 38 38 39 39 40 40 40 40 41 41 41 42
48 48 48 48 48 48 47 46 46 46 45 45 44 45 45 45 45 44 43 43 42 43 43 42 41 40 40 39 39 39 39 40 40 40 40 40 41 41 41 41 42 42
47 47 47 47 47 47 47 46 46 46 45 44 44 44 45 45 45 44 44 43 43 43 43 42 42 41 41 41 41 40 40 40 40 40 40 40 41 41 41 41 42 42
46 45 45 45 46 46 46 46 46 45 45 44 44 44 44 45 45 44 44 43 43 43 43 43 42 42 41 41 41 40 40 40 40 40 40 40 40 40 41 41 41 41
45 45 45 45 45 45 46 46 45 45 44 44 44 44 44 44 44 44 44 43 43 43 43 43 42 41 41 41 40 40 40 39 39 39 39 40 40 40 40 40 41 41
46 45 45 45 45 45 45 45 44 44 44 44 43 44 44 44 44 44 43 43 43 42 42 42 41 41 41 41 40 40 39 39 39 39 39 39 39 40 40 40 41 41
46 46 45 45 45 45 44 44 44 43 43 43 43 43 43 44 44 43 43 42 42 41 41 41 41 41 41 40 39 39 38 38 37 37 38 38 38 39 40 40 40 40
46 46 45 45 45 44 43 43 43 43 43 43 43 43 43 44 44 43 42 42 41 40 40 40 40 40 39 39 38 38 37 37 36 36 36 37 37 38 38 39 39 39
45 45 45 45 44 43 43 42 42 43 43 43 43 44 44 44 44 43 41 40 40 39 39 39 39 39 38 38 37 37 36 36 36 36 36 36 37 37 38 38 38 39
44 44 45 44 44 43 43 42 42 43 43 43 43 43 43 43 43 42 40 39 39 38 38 38 38 38 38 37 37 37 36 36 36 36 36 37 37 38 38 38 39 39
43 44 44 44 44 43 43 42 42 42 43 43 42 42 43 43 42 40 39 39 39 38 38 38 38 38 38 37 37 37 36 36 36 37 37 37 37 38 39 39 40 40
43 44 44 44 44 44 43 43 42 42 42 42 42 42 42 42 41 39 40 40 40 39 39 39 38 38 38 37 37 37 37 37 37 37 37 37 38 38 39 39 40 40
43 44 44 44 44 44 43 43 42 42 42 42 42 42 42 41 40 40 40 40 40 40 39 39 38 38 37 37 37 37 37 37 37 37 37 38 38 38 39 39 39 40
43 43 44 44 45 44 44 43 43 43 42 42 42 41 41 40 40 40 41 41 41 40 39 39 38 38 37 37 37 37 37 37 38 38 38 38 38 38 39 39 39 39
Wind_Direction
255 255 255 255 256 257 258 259 260 261 262 262 262 262 262 262 262 263 264 264 263 263 263 264 265 266 266 267 268 270 271 273 274 275 276 277 277 277 278 279 279 280
255 255 255 256 256 257 259 260 261 262 263 263 263 264 263 263 263 263 263 263 263 263 263 263 264 265 266 267 268 269 270 271 273 274 275 276 276 276 277 278 279 280
255 255 256 256 256 257 259 261 262 263 264 264 265 265 265 264 264 263 262 261 261 262 262 263 264 265 266 267 268 268 270 271 272 274 275 275 276 276 277 278 279 279
256 256 256 257 257 259 261 262 263 264 265 265 265 266 266 265 264 263 262 261 260 260 261 262 263 264 266 266 267 269 270 271 272 273 275 275 276 276 277 278 279 279
257 257 257 258 259 260 262 262 263 264 264 265 266 266 266 265 264 263 262 261 259 259 260 261 263 264 265 266 268 269 270 271 273 274 275 276 276 277 277 278 279 279
258 258 258 258 259 260 262 262 263 263 264 265 266 266 266 265 264 263 262 261 260 259 259 260 262 263 265 266 268 269 270 272 273 274 275 276 276 277 277 278 279 279
259 259 259 259 260 260 262 263 264 264 265 265 266 265 265 264 264 263 262 261 261 260 259 260 261 263 265 267 268 269 270 272 273 274 275 276 277 277 278 279 279 279
260 260 260 260 260 260 261 263 264 265 265 265 265 264 264 263 263 263 262 261 261 260 260 260 261 263 265 267 268 269 270 272 273 274 275 276 277 278 279 279 279 279
260 260 260 260 260 260 261 262 263 264 264 264 264 263 263 262 262 262 261 261 261 261 260 261 261 263 264 266 268 269 270 272 273 274 275 276 277 278 279 279 279 279
260 260 260 259 260 260 260 260 262 263 263 263 263 263 262 261 261 261 260 260 261 261 261 261 261 262 264 266 268 270 271 272 273 274 275 276 277 278 279 279 280 280
260 260 259 259 260 260 259 259 261 262 262 262 262 261 259 259 260 259 260 260 261 261 261 261 261 262 263 265 268 270 271 272 273 274 275 277 278 279 279 280 280 281
259 259 258 258 258 258 258 258 259 260 260 261 260 259 258 258 258 259 260 261 261 261 261 261 261 262 263 265 267 269 270 272 273 274 276 277 278 279 280 280 281 281
260 259 259 258 257 257 257 257 258 258 259 260 260 258 257 256 256 257 259 260 260 260 260 260 261 261 262 264 266 268 270 271 273 274 275 277 277 279 279 280 281 282
260 260 260 259 258 257 256 256 257 258 259 260 259 258 257 256 256 256 258 259 259 259 260 260 260 260 261 263 266 268 270 271 272 273 275 276 278 279 280 280 281 281
260 260 259 258 257 256 255 255 256 257 259 259 258 257 257 257 256 256 257 258 258 259 259 259 259 260 262 264 266 268 269 271 272 273 275 276 278 279 279 279 280 280
259 258 258 257 256 255 254 254 255 257 258 259 258 257 257 256 256 256 256 257 258 258 258 258 259 260 262 263 265 267 269 270 272 273 275 276 277 277 278 278 278 279
257 257 257 257 256 255 254 254 255 256 257 258 258 257 257 257 256 256 257 257 257 257 257 258 259 259 259 261 263 266 268 270 272 273 274 275 276 277 278 278 279 280
257 256 256 256 256 256 255 254 255 255 256 256 257 257 256 256 256 256 256 257 257 257 256 257 258 257 258 260 262 264 267 270 271 272 274 276 277 278 279 279 280 281
256 256 256 256 256 256 255 254 254 254 255 255 255 255 255 255 255 255 256 256 256 256 255 256 257 257 258 260 262 263 265 268 270 272 274 276 277 279 280 280 281 282
255 255 255 255 255 255 254 253 253 254 254 254 255 255 254 254 254 254 255 255 255 254 255 256 256 256 257 259 261 262 264 266 270 272 275 277 278 279 280 280 281 283
255 254 254 253 253 252 251 252 253 253 254 255 255 255 255 255 255 255 255 254 253 253 254 255 255 255 257 259 260 261 263 266 270 272 275 277 278 279 280 281 282 284
256 254 252 251 251 251 251 253 254 254 255 256 256 256 256 256 255 255 254 253 252 252 253 254 254 255 257 259 260 261 263 267 270 272 274 276 277 278 280 282 284 285
255 253 252 251 250 251 253 254 254 254 255 255 255 255 256 255 255 254 253 251 250 251 252 253 254 256 257 259 259 261 264 267 270 272 274 275 277 279 280 282 284 285
254 252 251 251 251 252 253 254 254 255 255 255 255 255 255 255 253 252 251 250 249 250 251 253 255 256 257 258 259 261 264 267 270 272 274 275 277 279 281 283 284 284
254 252 251 251 252 253 253 254 254 255 255 255 256 256 255 254 252 251 250 249 250 251 252 254 255 257 258 259 260 261 264 267 270 271 273 275 277 279 282 283 284 284
254 252 251 252 252 253 254 254 255 256 256 256 256 256 254 253 252 251 250 250 251 252 253 254 255 258 259 259 259 261 264 267 269 270 271 274 277 279 282 283 284 285